When you browse on this site, cookies collect data to enhance your experience and personalize the content and advertising you see.
Visit our Privacy Policy to learn more. By continuing to use the site, you agree to this use of cookies and data.
  • en France
  • Liste des pays
  • À 7 jours
  • Température de l'eau
  • Carte satellitaire
  • Carte météo
  • Widgets météo
  • user-avatar
    Se connecter

    Météo par heure à Zinder

    Ce jour, 22 Janvier, Mardi

    Heure Température Précipitation Vent Pression Humidité
    00:00 +25°C° 0 mm 2 m/s 719 mmHg 20%
    01:00 +25°C° 0 mm 2 m/s 719 mmHg 20%
    02:00 +24°C° 0 mm 2 m/s 719 mmHg 20%
    03:00 +24°C° 0 mm 2 m/s 718 mmHg 19%
    04:00 +23°C° 0 mm 2 m/s 718 mmHg 19%
    05:00 +23°C° 0 mm 2 m/s 718 mmHg 18%
    06:00 +23°C° 0 mm 2 m/s 718 mmHg 17%
    07:00 +21°C° 0 mm 3 m/s 719 mmHg 17%
    08:00 +25°C° 0 mm 2 m/s 719 mmHg 15%
    09:00 +28°C° 0 mm 2 m/s 720 mmHg 13%
    10:00 +30°C° 0 mm 2 m/s 721 mmHg 11%
    11:00 +32°C° 0 mm 2 m/s 720 mmHg 11%
    12:00 +35°C° 0 mm 2 m/s 720 mmHg 11%
    13:00 +36°C° 0 mm 2 m/s 719 mmHg 11%
    14:00 +37°C° 0 mm 2 m/s 719 mmHg 11%
    15:00 +37°C° 0 mm 2 m/s 718 mmHg 11%
    16:00 +38°C° 0 mm 2 m/s 718 mmHg 11%
    17:00 +35°C° 0 mm 2 m/s 717 mmHg 14%
    18:00 +31°C° 0 mm 2 m/s 717 mmHg 16%
    19:00 +28°C° 0 mm 1 m/s 717 mmHg 19%
    20:00 +27°C° 0 mm 1 m/s 717 mmHg 20%
    21:00 +27°C° 0 mm 1 m/s 718 mmHg 21%
    22:00 +26°C° 0 mm 1 m/s 718 mmHg 21%
    23:00 +26°C° 0 mm 2 m/s 718 mmHg 22%

    Demain, 23 Janvier, Mercredi

    Heure Température Précipitation Vent Pression Humidité
    00:00 +26°C° 0 mm 2 m/s 718 mmHg 22%
    01:00 +26°C° 0 mm 3 m/s 718 mmHg 22%
    02:00 +25°C° 0 mm 3 m/s 718 mmHg 19%
    03:00 +25°C° 0 mm 4 m/s 718 mmHg 16%
    04:00 +23°C° 0 mm 4 m/s 718 mmHg 13%
    05:00 +22°C° 0 mm 4 m/s 718 mmHg 12%
    06:00 +22°C° 0 mm 4 m/s 718 mmHg 10%
    07:00 +21°C° 0 mm 4 m/s 718 mmHg 9%
    08:00 +23°C° 0 mm 4 m/s 719 mmHg 7%
    09:00 +27°C° 0 mm 4 m/s 720 mmHg 6%
    10:00 +29°C° 0 mm 5 m/s 720 mmHg 5%
    11:00 +32°C° 0 mm 4 m/s 720 mmHg 5%
    12:00 +34°C° 0 mm 4 m/s 719 mmHg 5%
    13:00 +35°C° 0 mm 3 m/s 719 mmHg 5%
    14:00 +36°C° 0 mm 3 m/s 718 mmHg 5%
    15:00 +36°C° 0 mm 4 m/s 717 mmHg 6%
    16:00 +37°C° 0 mm 4 m/s 717 mmHg 6%
    17:00 +34°C° 0 mm 4 m/s 717 mmHg 7%
    18:00 +32°C° 0 mm 4 m/s 717 mmHg 8%
    19:00 +29°C° 0 mm 4 m/s 717 mmHg 9%
    20:00 +28°C° 0 mm 4 m/s 718 mmHg 8%
    21:00 +27°C° 0 mm 4 m/s 718 mmHg 7%
    22:00 +26°C° 0 mm 4 m/s 718 mmHg 7%
    23:00 +25°C° 0 mm 4 m/s 718 mmHg 6%

    Après-demain, 24 Janvier, Jeudi

    Heure Température Précipitation Vent Pression Humidité
    00:00 +23°C° 0 mm 4 m/s 718 mmHg 5%
    01:00 +23°C° 0 mm 4 m/s 718 mmHg 4%
    02:00 +22°C° 0 mm 4 m/s 717 mmHg 5%
    03:00 +21°C° 0 mm 4 m/s 717 mmHg 5%
    04:00 +21°C° 0 mm 4 m/s 716 mmHg 5%
    05:00 +20°C° 0 mm 4 m/s 717 mmHg 6%
    06:00 +19°C° 0 mm 4 m/s 717 mmHg 7%
    07:00 +19°C° 0 mm 4 m/s 717 mmHg 8%
    08:00 +21°C° 0 mm 4 m/s 718 mmHg 7%
    09:00 +25°C° 0 mm 3 m/s 719 mmHg 6%
    10:00 +27°C° 0 mm 3 m/s 720 mmHg 5%
    11:00 +29°C° 0 mm 3 m/s 719 mmHg 5%
    12:00 +31°C° 0 mm 2 m/s 719 mmHg 5%
    13:00 +33°C° 0 mm 1 m/s 718 mmHg 5%
    14:00 +34°C° 0 mm 2 m/s 717 mmHg 5%
    15:00 +35°C° 0 mm 2 m/s 717 mmHg 5%
    16:00 +36°C° 0 mm 3 m/s 716 mmHg 6%
    17:00 +34°C° 0 mm 3 m/s 716 mmHg 7%
    18:00 +30°C° 0 mm 3 m/s 716 mmHg 8%
    19:00 +28°C° 0 mm 3 m/s 717 mmHg 9%
    20:00 +27°C° 0 mm 3 m/s 717 mmHg 9%
    21:00 +27°C° 0 mm 3 m/s 718 mmHg 9%
    22:00 +26°C° 0 mm 3 m/s 718 mmHg 10%
    23:00 +25°C° 0 mm 3 m/s 718 mmHg 10%

    25 Janvier, Vendredi

    Heure Température Précipitation Vent Pression Humidité
    00:00 +24°C° 0 mm 2 m/s 717 mmHg 11%
    01:00 +23°C° 0 mm 2 m/s 717 mmHg 11%
    02:00 +23°C° 0 mm 2 m/s 717 mmHg 11%
    03:00 +23°C° 0 mm 2 m/s 717 mmHg 11%
    04:00 +21°C° 0 mm 2 m/s 717 mmHg 11%
    05:00 +20°C° 0 mm 2 m/s 717 mmHg 11%
    06:00 +20°C° 0 mm 2 m/s 717 mmHg 12%
    07:00 +20°C° 0 mm 1 m/s 718 mmHg 12%
    08:00 +23°C° 0 mm 2 m/s 719 mmHg 11%
    09:00 +26°C° 0 mm 2 m/s 719 mmHg 9%
    10:00 +29°C° 0 mm 3 m/s 720 mmHg 7%
    11:00 +30°C° 0 mm 2 m/s 720 mmHg 7%
    12:00 +32°C° 0 mm 2 m/s 719 mmHg 7%
    13:00 +35°C° 0 mm 2 m/s 719 mmHg 6%
    14:00 +35°C° 0 mm 2 m/s 718 mmHg 6%
    15:00 +36°C° 0 mm 3 m/s 717 mmHg 6%
    16:00 +36°C° 0 mm 3 m/s 717 mmHg 6%
    17:00 +34°C° 0 mm 3 m/s 717 mmHg 7%
    18:00 +31°C° 0 mm 3 m/s 717 mmHg 8%
    19:00 +28°C° 0 mm 3 m/s 717 mmHg 9%
    20:00 +27°C° 0 mm 3 m/s 718 mmHg 9%
    21:00 +27°C° 0 mm 3 m/s 718 mmHg 9%
    22:00 +26°C° 0 mm 4 m/s 719 mmHg 9%
    23:00 +25°C° 0 mm 3 m/s 718 mmHg 9%

    26 Janvier, Samedi

    Heure Température Précipitation Vent Pression Humidité
    00:00 +25°C° 0 mm 3 m/s 718 mmHg 9%
    01:00 +24°C° 0 mm 3 m/s 718 mmHg 9%
    02:00 +23°C° 0 mm 4 m/s 717 mmHg 9%
    03:00 +22°C° 0 mm 4 m/s 717 mmHg 9%
    04:00 +22°C° 0 mm 4 m/s 717 mmHg 9%
    05:00 +21°C° 0 mm 4 m/s 717 mmHg 9%
    06:00 +20°C° 0 mm 4 m/s 718 mmHg 9%
    07:00 +19°C° 0 mm 4 m/s 718 mmHg 9%
    08:00 +22°C° 0 mm 4 m/s 719 mmHg 8%
    09:00 +26°C° 0 mm 4 m/s 719 mmHg 7%
    10:00 +28°C° 0 mm 4 m/s 720 mmHg 5%
    11:00 +30°C° 0 mm 4 m/s 720 mmHg 5%
    12:00 +33°C° 0 mm 3 m/s 720 mmHg 5%
    13:00 +35°C° 0 mm 3 m/s 719 mmHg 5%
    14:00 +35°C° 0 mm 3 m/s 719 mmHg 5%
    15:00 +36°C° 0 mm 3 m/s 718 mmHg 5%
    16:00 +36°C° 0 mm 3 m/s 717 mmHg 5%
    17:00 +34°C° 0 mm 3 m/s 717 mmHg 6%
    18:00 +30°C° 0 mm 3 m/s 717 mmHg 7%
    19:00 +28°C° 0 mm 3 m/s 717 mmHg 8%
    20:00 +27°C° 0 mm 3 m/s 718 mmHg 8%
    21:00 +26°C° 0 mm 4 m/s 718 mmHg 8%
    22:00 +25°C° 0 mm 4 m/s 719 mmHg 8%
    23:00 +23°C° 0 mm 4 m/s 718 mmHg 7%

    27 Janvier, Dimanche

    Heure Température Précipitation Vent Pression Humidité
    00:00 +22°C° 0 mm 4 m/s 718 mmHg 7%
    01:00 +21°C° 0 mm 4 m/s 718 mmHg 7%
    02:00 +21°C° 0 mm 4 m/s 718 mmHg 7%
    03:00 +20°C° 0 mm 4 m/s 717 mmHg 8%
    04:00 +19°C° 0 mm 4 m/s 717 mmHg 8%
    05:00 +19°C° 0 mm 4 m/s 717 mmHg 9%
    06:00 +18°C° 0 mm 4 m/s 718 mmHg 10%
    07:00 +17°C° 0 mm 4 m/s 718 mmHg 11%
    08:00 +19°C° 0 mm 4 m/s 719 mmHg 11%
    09:00 +22°C° 0 mm 5 m/s 719 mmHg 11%
    10:00 +24°C° 0 mm 6 m/s 720 mmHg 11%
    11:00 +27°C° 0 mm 5 m/s 719 mmHg 10%
    12:00 +29°C° 0 mm 4 m/s 719 mmHg 8%
    13:00 +32°C° 0 mm 4 m/s 718 mmHg 7%
    14:00 +33°C° 0 mm 3 m/s 718 mmHg 7%
    15:00 +33°C° 0 mm 3 m/s 717 mmHg 7%
    16:00 +34°C° 0 mm 2 m/s 717 mmHg 6%
    17:00 +30°C° 0 mm 2 m/s 717 mmHg 8%
    18:00 +27°C° 0 mm 2 m/s 716 mmHg 10%
    19:00 +24°C° 0 mm 1 m/s 716 mmHg 11%
    20:00 +24°C° 0 mm 2 m/s 717 mmHg 11%
    21:00 +24°C° 0 mm 2 m/s 717 mmHg 12%
    22:00 +23°C° 0 mm 2 m/s 718 mmHg 12%
    23:00 +23°C° 0 mm 2 m/s 718 mmHg 12%
    Voir plus